User: anonymous
Location: Unspecified
(0.0000°N, 0.0000°E)
Time: 21:01:54
(UTC+00:00)
Language:

STSS DEMO 2 (USA 209) - Orbit

View from above orbital plane
View from above orbital plane
View from above satellite
View from above satellite

Ground track
Ground track

The orbit data is extracted from the following two-line orbital elements,

1 35938U 09052B   14243.83126464 0.00000000  00000-0  00000-0 0    05
2 35938  57.9846 262.3317 0012652   2.5864 357.4136 12.79133581    03
Epoch (UTC): 31 August 2014 19:57:01
Eccentricity: 0.0012652
inclination: 57.9846°
perigee height: 1335 km
apogee height: 1355 km
right ascension of ascending node: 262.3317°
argument of perigee: 2.5864°
revolutions per day: 12.79133581
mean anomaly at epoch: 357.4136°
orbit number at epoch: 0

The dashed part of the orbit path shows where the satellite is in the earth's shadow,  

DLR